When you browse on this site, cookies collect data to enhance your experience and personalize the content and advertising you see.
Visit our Privacy Policy to learn more. By continuing to use the site, you agree to this use of cookies and data.
  • In France
  • List of Countries
  • For 7 days
  • Water Temperature
  • Satellite Maps
  • Weather Map
  • Weather Widgets
  • user-avatar
    Login

    Hourly Weather Armawir

    Today, 22 July, Monday

    Time Temperature Precipitation Wind Pressure Humidity
    00:00 +27°C° 0 mm 3 mps 687 mmHg 48%
    01:00 +27°C° 0 mm 2 mps 687 mmHg 49%
    02:00 +26°C° 0 mm 2 mps 686 mmHg 50%
    03:00 +26°C° 0 mm 2 mps 686 mmHg 53%
    04:00 +26°C° 0 mm 2 mps 686 mmHg 52%
    05:00 +27°C° 0 mm 2 mps 686 mmHg 51%
    06:00 +27°C° 0 mm 2 mps 686 mmHg 50%
    07:00 +29°C° 0 mm 2 mps 686 mmHg 44%
    08:00 +32°C° 0 mm 2 mps 686 mmHg 38%
    09:00 +35°C° 0 mm 2 mps 686 mmHg 32%
    10:00 +37°C° 0 mm 2 mps 686 mmHg 28%
    11:00 +39°C° 0 mm 2 mps 686 mmHg 24%
    12:00 +41°C° 0 mm 2 mps 686 mmHg 20%
    13:00 +43°C° 0 mm 3 mps 686 mmHg 19%
    14:00 +44°C° 0 mm 3 mps 686 mmHg 17%
    15:00 +45°C° 0 mm 3 mps 685 mmHg 15%
    16:00 +45°C° 0 mm 5 mps 685 mmHg 16%
    17:00 +44°C° 0 mm 6 mps 685 mmHg 18%
    18:00 +43°C° 0 mm 7 mps 685 mmHg 20%
    19:00 +39°C° 0 mm 6 mps 685 mmHg 29%
    20:00 +34°C° 0 mm 6 mps 685 mmHg 38%
    21:00 +30°C° 0 mm 5 mps 685 mmHg 48%
    22:00 +29°C° 0 mm 4 mps 685 mmHg 49%
    23:00 +28°C° 0 mm 4 mps 685 mmHg 51%

    Tomorrow, 23 July, Tuesday

    Time Temperature Precipitation Wind Pressure Humidity
    00:00 +28°C° 0 mm 4 mps 685 mmHg 53%
    01:00 +27°C° 0 mm 4 mps 685 mmHg 54%
    02:00 +27°C° 0 mm 3 mps 685 mmHg 56%
    03:00 +26°C° 0 mm 3 mps 685 mmHg 58%
    04:00 +26°C° 0 mm 3 mps 685 mmHg 57%
    05:00 +27°C° 0 mm 3 mps 685 mmHg 57%
    06:00 +27°C° 0 mm 2 mps 685 mmHg 56%
    07:00 +29°C° 0 mm 2 mps 685 mmHg 51%
    08:00 +30°C° 0 mm 2 mps 685 mmHg 46%
    09:00 +32°C° 0 mm 2 mps 685 mmHg 41%
    10:00 +35°C° 0 mm 2 mps 685 mmHg 36%
    11:00 +37°C° 0 mm 2 mps 685 mmHg 32%
    12:00 +39°C° 0 mm 2 mps 685 mmHg 27%
    13:00 +40°C° 0 mm 3 mps 685 mmHg 25%
    14:00 +42°C° 0 mm 3 mps 684 mmHg 23%
    15:00 +43°C° 0 mm 4 mps 684 mmHg 21%
    16:00 +42°C° 0 mm 4 mps 684 mmHg 24%
    17:00 +41°C° 0 mm 5 mps 684 mmHg 26%
    18:00 +40°C° 0 mm 6 mps 684 mmHg 29%
    19:00 +36°C° 0 mm 5 mps 684 mmHg 36%
    20:00 +33°C° 0 mm 4 mps 684 mmHg 43%
    21:00 +29°C° 0 mm 4 mps 684 mmHg 49%
    22:00 +28°C° 0 mm 3 mps 684 mmHg 53%
    23:00 +27°C° 0 mm 3 mps 684 mmHg 56%

    Day after tomorrow, 24 July, Wednesday

    Time Temperature Precipitation Wind Pressure Humidity
    00:00 +26°C° 0 mm 3 mps 684 mmHg 60%
    01:00 +26°C° 0 mm 3 mps 684 mmHg 61%
    02:00 +25°C° 0 mm 2 mps 683 mmHg 63%
    03:00 +25°C° 0 mm 2 mps 683 mmHg 64%
    04:00 +25°C° 0 mm 2 mps 683 mmHg 62%
    05:00 +26°C° 0 mm 2 mps 684 mmHg 60%
    06:00 +26°C° 0 mm 2 mps 684 mmHg 58%
    07:00 +28°C° 0 mm 2 mps 684 mmHg 52%
    08:00 +30°C° 0 mm 2 mps 684 mmHg 46%
    09:00 +32°C° 0 mm 2 mps 684 mmHg 40%
    10:00 +35°C° 0 mm 2 mps 685 mmHg 33%
    11:00 +36°C° 0 mm 1 mps 685 mmHg 27%
    12:00 +39°C° 0 mm 1 mps 685 mmHg 20%
    13:00 +40°C° 0 mm 1 mps 684 mmHg 18%
    14:00 +40°C° 0 mm 2 mps 684 mmHg 16%
    15:00 +41°C° 0 mm 2 mps 684 mmHg 14%
    16:00 +41°C° 0 mm 2 mps 684 mmHg 13%
    17:00 +42°C° 0 mm 3 mps 684 mmHg 12%
    18:00 +41°C° 0 mm 4 mps 685 mmHg 11%
    19:00 +37°C° 0 mm 3 mps 685 mmHg 18%
    20:00 +33°C° 0 mm 3 mps 685 mmHg 26%
    21:00 +28°C° 0 mm 3 mps 684 mmHg 34%
    22:00 +27°C° 0 mm 2 mps 685 mmHg 37%
    23:00 +26°C° 0 mm 2 mps 685 mmHg 40%

    25 July, Thursday

    Time Temperature Precipitation Wind Pressure Humidity
    00:00 +25°C° 0 mm 2 mps 685 mmHg 44%
    01:00 +25°C° 0 mm 2 mps 685 mmHg 47%
    02:00 +24°C° 0 mm 1 mps 684 mmHg 50%
    03:00 +23°C° 0 mm 1 mps 684 mmHg 54%
    04:00 +24°C° 0 mm 1 mps 685 mmHg 51%
    05:00 +24°C° 0 mm 1 mps 685 mmHg 49%
    06:00 +25°C° 0 mm 1 mps 685 mmHg 47%
    07:00 +28°C° 0 mm 1 mps 686 mmHg 39%
    08:00 +30°C° 0 mm 2 mps 686 mmHg 32%
    09:00 +34°C° 0 mm 2 mps 687 mmHg 24%
    10:00 +36°C° 0 mm 2 mps 687 mmHg 20%
    11:00 +37°C° 0 mm 2 mps 687 mmHg 15%
    12:00 +39°C° 0 mm 2 mps 687 mmHg 11%
    13:00 +40°C° 0 mm 3 mps 686 mmHg 10%
    14:00 +42°C° 0 mm 4 mps 686 mmHg 8%
    15:00 +43°C° 0 mm 5 mps 686 mmHg 7%
    16:00 +43°C° 0 mm 5 mps 686 mmHg 8%
    17:00 +42°C° 0 mm 6 mps 685 mmHg 8%
    18:00 +41°C° 0 mm 6 mps 685 mmHg 9%
    19:00 +38°C° 0 mm 6 mps 685 mmHg 17%
    20:00 +33°C° 0 mm 6 mps 685 mmHg 25%
    21:00 +29°C° 0 mm 6 mps 685 mmHg 33%
    22:00 +28°C° 0 mm 5 mps 685 mmHg 39%
    23:00 +27°C° 0 mm 5 mps 685 mmHg 44%

    26 July, Friday

    Time Temperature Precipitation Wind Pressure Humidity
    00:00 +25°C° 0 mm 4 mps 685 mmHg 50%
    01:00 +25°C° 0 mm 4 mps 685 mmHg 52%
    02:00 +23°C° 0 mm 4 mps 685 mmHg 53%
    03:00 +22°C° 0 mm 3 mps 684 mmHg 55%
    04:00 +24°C° 0 mm 3 mps 685 mmHg 54%
    05:00 +24°C° 0 mm 3 mps 685 mmHg 53%
    06:00 +24°C° 0 mm 3 mps 685 mmHg 52%
    07:00 +26°C° 0 mm 3 mps 685 mmHg 47%
    08:00 +29°C° 0 mm 3 mps 685 mmHg 41%
    09:00 +31°C° 0 mm 3 mps 685 mmHg 35%
    10:00 +33°C° 0 mm 3 mps 685 mmHg 31%
    11:00 +35°C° 0 mm 3 mps 685 mmHg 26%
    12:00 +37°C° 0 mm 2 mps 685 mmHg 22%
    13:00 +38°C° 0 mm 2 mps 684 mmHg 20%
    14:00 +39°C° 0 mm 2 mps 684 mmHg 19%
    15:00 +40°C° 0 mm 3 mps 684 mmHg 17%
    16:00 +40°C° 0 mm 4 mps 684 mmHg 21%
    17:00 +39°C° 0 mm 5 mps 683 mmHg 24%
    18:00 +38°C° 0 mm 6 mps 683 mmHg 27%
    19:00 +34°C° 0 mm 5 mps 683 mmHg 34%
    20:00 +30°C° 0 mm 4 mps 683 mmHg 41%
    21:00 +27°C° 0 mm 3 mps 684 mmHg 48%
    22:00 +27°C° 0 mm 3 mps 684 mmHg 51%
    23:00 +26°C° 0 mm 4 mps 684 mmHg 53%

    27 July, Saturday

    Time Temperature Precipitation Wind Pressure Humidity
    00:00 +25°C° 0 mm 4 mps 683 mmHg 55%
    01:00 +23°C° 0 mm 4 mps 683 mmHg 57%
    02:00 +24°C° 0 mm 3 mps 683 mmHg 58%
    03:00 +22°C° 0 mm 3 mps 683 mmHg 59%
    04:00 +24°C° 0 mm 3 mps 683 mmHg 58%
    05:00 +24°C° 0 mm 3 mps 683 mmHg 57%
    06:00 +24°C° 0 mm 3 mps 683 mmHg 56%
    07:00 +26°C° 0 mm 3 mps 683 mmHg 51%
    08:00 +28°C° 0 mm 3 mps 683 mmHg 45%
    09:00 +30°C° 0 mm 3 mps 683 mmHg 40%
    10:00 +31°C° 0 mm 2 mps 683 mmHg 36%
    11:00 +34°C° 0 mm 2 mps 683 mmHg 32%
    12:00 +35°C° 0 mm 2 mps 683 mmHg 28%
    13:00 +36°C° 0 mm 2 mps 683 mmHg 26%
    14:00 +37°C° 0 mm 2 mps 683 mmHg 24%
    15:00 +38°C° 0 mm 2 mps 682 mmHg 22%
    16:00 +37°C° 0 mm 3 mps 682 mmHg 25%
    17:00 +36°C° 0 mm 4 mps 682 mmHg 27%
    18:00 +36°C° 0 mm 5 mps 682 mmHg 30%
    19:00 +33°C° 0.3 mm 5 mps 682 mmHg 39%
    20:00 +29°C° 0.3 mm 4 mps 682 mmHg 48%
    21:00 +26°C° 0.3 mm 4 mps 682 mmHg 57%
    22:00 +25°C° 0.2 mm 3 mps 682 mmHg 59%
    23:00 +24°C° 0.2 mm 3 mps 682 mmHg 61%
    Show more